This is the latest recevied weather packets stored in our database for station/object SR8NGO-1. If no packets are shown the sender has not sent any weather packets the latest 10 day(s).
| Time | Temp. | Humidity | Pressure | Rain* | Wind** | Luminosity | Snow |
|---|---|---|---|---|---|---|---|
| 1777379797 | 11.11° C | 67% | 1011.6 hPa | 137.92 mm | - | - | - |
| 1777379557 | 15° C | 68% | 1011.5 hPa | 137.92 mm | - | - | - |
| 1777379317 | 16.11° C | 69% | 1011.5 hPa | 137.92 mm | - | - | - |
| 1777379077 | 15° C | 71% | 1011.6 hPa | 137.92 mm | - | - | - |
| 1777378837 | 13.89° C | 71% | 1011.5 hPa | 137.92 mm | - | - | - |
| 1777378599 | 12.78° C | 69% | 1011.6 hPa | 137.92 mm | - | - | - |
| 1777378117 | 15° C | 66% | 1011.6 hPa | 137.92 mm | - | - | - |
| 1777377877 | 12.78° C | 64% | 1011.7 hPa | 137.92 mm | - | - | - |
| 1777377637 | 12.78° C | 62% | 1011.7 hPa | 137.92 mm | - | - | - |
| 1777377397 | 13.89° C | 66% | 1011.6 hPa | 137.92 mm | - | - | - |
| 1777377157 | 13.89° C | 66% | 1011.7 hPa | 137.92 mm | - | - | - |
| 1777376677 | 13.89° C | 75% | 1011.6 hPa | 137.92 mm | - | - | - |
| 1777376437 | 12.78° C | 76% | 1011.8 hPa | 137.92 mm | - | - | - |
| 1777376197 | 13.89° C | 75% | 1011.7 hPa | 137.92 mm | - | - | - |
| 1777375957 | 12.78° C | 74% | 1011.7 hPa | 137.92 mm | - | - | - |
| 1777375717 | 12.78° C | 73% | 1011.8 hPa | 137.92 mm | - | - | - |
| 1777375477 | 12.22° C | 71% | 1011.8 hPa | 137.92 mm | - | - | - |
| 1777375237 | 15° C | 70% | 1011.8 hPa | 137.92 mm | - | - | - |
| 1777374997 | 13.89° C | 69% | 1011.9 hPa | 137.92 mm | - | - | - |
| 1777374757 | 15° C | 68% | 1011.8 hPa | 137.92 mm | - | - | - |
| 1777374516 | 13.89° C | 65% | 1011.8 hPa | 137.92 mm | - | - | - |
| 1777374277 | 16.11° C | 67% | 1011.8 hPa | 137.92 mm | - | - | - |
| 1777374037 | 13.89° C | 73% | 1011.8 hPa | 137.92 mm | - | - | - |
| 1777373797 | 12.78° C | 73% | 1011.8 hPa | 137.92 mm | - | - | - |
| 1777373557 | 12.78° C | 73% | 1011.8 hPa | 137.92 mm | - | - | - |
* Rain latest hour (hover to see other rain measurements)
** Current wind speed in m/s (hover to see current wind gust speed)